Weather History for Mount Airy, NC

Change the Weather History Date:

Wednesday, May 8, 2013

  Actual Average (KINT) Record (KINT)
Temperature  
Mean Temperature 57 °F -  
Max Temperature 62 °F 74 °F 89 °F (1986)
Min Temperature 52 °F 53 °F 29 °F (1989)
Degree Days  
Heating Degree Days 8    
Growing Degree Days 7 (Base 50)    
Moisture  
Dew Point 53 °F    
Average Humidity 89    
Maximum Humidity 91    
Minimum Humidity 88    
Precipitation  
Precipitation 0.16 in - - ()
Sea Level Pressure  
Sea Level Pressure 29.97 in    
Wind  
Wind Speed 1 mph (NNE)    
Max Wind Speed 5 mph    
Max Gust Speed -    
Visibility 5 miles    
Events Fog , Rain    
Averages and records for this station are not official NWS values.
T = Trace of Precipitation, MM = Missing Value Source: NWS Daily Summary

Daily Weather History Graph

Daily Weather History Graph

Search for Another Location

Airport:

Trip Planner

Search our weather history database for the weather conditions in past years. The results will help you decide how hot, cold, wet, or windy it might be!

Date:

Astronomy

May. 08, 2013 Rise Set
Actual Time 6:21 AM EDT 8:16 PM EDT
Civil Twilight 5:53 AM EDT 8:44 PM EDT
Nautical Twilight 5:18 AM EDT 9:19 PM EDT
Astronomical Twilight 4:42 AM EDT 9:55 PM EDT
Moon 5:26 AM EDT (5/8) 7:14 PM EDT (5/8)
Length of Visible Light 14h 51m
Length of Day
13h 55m
Waning Crescent, 2% of the Moon is Illuminated
May 8
Waning Crescent
May 9
New
May 18
First Quarter
May 25
Full
May 31
Last Quarter

Hourly Weather History & Observations

Time (EDT) Temp. Dew Point Humidity Pressure Visibility Wind Dir Wind Speed Gust Speed Precip Events Conditions
12:15 AM 53.6 °F 50.4 °F 89% 29.94 in 5.0 mi South 3.5 mph - N/A   Overcast
12:35 AM 53.6 °F 50.5 °F 89% 29.94 in 5.0 mi Calm Calm - N/A   Overcast
12:55 AM 53.6 °F 50.5 °F 89% 29.94 in 4.0 mi Calm Calm - N/A   Overcast
1:15 AM 53.6 °F 50.5 °F 89% 29.94 in 2.5 mi Calm Calm - N/A   Overcast
1:35 AM 53.6 °F 50.5 °F 89% 29.93 in 4.0 mi Calm Calm - N/A   Overcast
1:55 AM 53.6 °F 50.7 °F 90% 29.93 in 5.0 mi Calm Calm - N/A   Overcast
2:15 AM 53.6 °F 50.9 °F 91% 29.93 in 5.0 mi Calm Calm - N/A   Overcast
2:35 AM 53.6 °F 50.9 °F 91% 29.93 in 5.0 mi Calm Calm - N/A   Overcast
2:55 AM 53.8 °F 50.9 °F 90% 29.92 in 7.0 mi Calm Calm - N/A   Overcast
3:15 AM 54.0 °F 51.1 °F 90% 29.92 in 7.0 mi Calm Calm - N/A   Overcast
3:35 AM 54.0 °F 51.1 °F 90% 29.92 in 4.0 mi Calm Calm - N/A   Overcast
3:55 AM 54.0 °F 51.1 °F 90% 29.93 in 4.0 mi Calm Calm - N/A   Overcast
4:15 AM 53.6 °F 50.9 °F 91% 29.92 in 3.0 mi Calm Calm - N/A   Overcast
4:35 AM 53.6 °F 50.5 °F 89% 29.92 in 3.0 mi Calm Calm - N/A   Scattered Clouds
4:55 AM 53.1 °F 50.2 °F 90% 29.92 in 2.0 mi Calm Calm - N/A   Clear
5:15 AM 52.7 °F 50.0 °F 91% 29.93 in 0.8 mi Calm Calm - N/A   Overcast
5:35 AM 52.7 °F 50.0 °F 91% 29.93 in 0.5 mi Calm Calm - N/A Fog Fog
5:55 AM 52.7 °F 50.0 °F 91% 29.93 in 0.8 mi Calm Calm - N/A   Overcast
6:15 AM 52.7 °F 50.0 °F 91% 29.93 in 0.8 mi Calm Calm - N/A   Overcast
6:35 AM 52.9 °F 50.0 °F 90% 29.94 in 0.8 mi Calm Calm - N/A   Overcast
6:55 AM 53.4 °F 50.5 °F 90% 29.95 in 0.8 mi Calm Calm - N/A   Overcast
7:15 AM 53.6 °F 50.5 °F 89% 29.96 in 1.0 mi Calm Calm - N/A   Overcast
7:35 AM 54.0 °F 51.1 °F 90% 29.96 in 0.2 mi Calm Calm - N/A Fog Fog
7:55 AM 54.3 °F 51.3 °F 89% 29.96 in 2.0 mi Calm Calm - N/A   Overcast
8:15 AM 54.7 °F 51.8 °F 90% 29.97 in 4.0 mi Calm Calm - N/A   Overcast
8:35 AM 55.4 °F 52.3 °F 89% 29.97 in 7.0 mi Calm Calm - N/A   Overcast
8:55 AM 55.2 °F 52.2 °F 89% 29.98 in 4.0 mi Calm Calm - N/A   Overcast
9:15 AM 55.6 °F 52.7 °F 90% 29.98 in 7.0 mi Calm Calm - N/A   Overcast
9:35 AM 55.4 °F 52.2 °F 89% 29.98 in 7.0 mi Calm Calm - N/A   Overcast
9:55 AM 55.4 °F 52.2 °F 89% 29.99 in 7.0 mi Calm Calm - N/A   Overcast
10:15 AM 55.4 °F 52.0 °F 88% 29.99 in 5.0 mi SE 3.5 mph - N/A   Overcast
10:35 AM 55.6 °F 52.7 °F 90% 30.00 in 5.0 mi Calm Calm - N/A   Overcast
10:55 AM 55.2 °F 52.0 °F 89% 30.00 in 7.0 mi Calm Calm - N/A Rain Light Rain
11:15 AM 56.3 °F 52.9 °F 88% 30.00 in 5.0 mi Calm Calm - N/A Rain Light Rain
11:35 AM 56.3 °F 52.9 °F 88% 30.00 in 5.0 mi Calm Calm - N/A Rain Light Rain
11:55 AM 56.3 °F 52.9 °F 88% 30.00 in 4.0 mi Calm Calm - N/A Rain Light Rain
12:15 PM 56.5 °F 53.2 °F 89% 29.99 in 5.0 mi Calm Calm - N/A   Light Drizzle
12:35 PM 57.2 °F 54.0 °F 89% 29.98 in 5.0 mi Calm Calm - N/A Rain Light Rain
12:55 PM 57.2 °F 54.0 °F 89% 29.98 in 4.0 mi Calm Calm - N/A   Drizzle
1:15 PM 57.4 °F 54.3 °F 90% 29.97 in 4.0 mi Calm Calm - N/A Rain Light Rain
1:35 PM 57.7 °F 54.5 °F 89% 29.97 in 4.0 mi Calm Calm - N/A   Drizzle
1:55 PM 58.1 °F 54.9 °F 89% 29.97 in 4.0 mi Calm Calm - N/A   Drizzle
2:15 PM 58.5 °F 55.4 °F 90% 29.97 in 3.0 mi Calm Calm - N/A Rain Light Rain
2:35 PM 59.7 °F 56.5 °F 89% 29.97 in 2.5 mi Calm Calm - N/A Rain Light Rain
2:55 PM 59.9 °F 56.5 °F 88% 29.96 in 2.0 mi Calm Calm - N/A Rain Light Rain
3:15 PM 60.8 °F 57.6 °F 89% 29.96 in 5.0 mi Calm Calm - N/A   Overcast
3:35 PM 60.3 °F 57.2 °F 90% 29.96 in 5.0 mi Calm Calm - N/A Rain Rain
3:55 PM 60.3 °F 57.2 °F 90% 29.95 in 4.0 mi Calm Calm - N/A Rain Rain
4:15 PM 60.8 °F 57.4 °F 88% 29.95 in 4.0 mi Calm Calm - N/A   Light Drizzle
4:35 PM 62.4 °F 59.2 °F 89% 29.95 in 5.0 mi Calm Calm - 0.01 in   Overcast
4:55 PM 61.9 °F 58.5 °F 89% 29.96 in 4.0 mi North 4.6 mph - 0.01 in Rain Light Rain
5:15 PM 60.1 °F 56.8 °F 89% 29.95 in 1.8 mi Calm Calm - 0.11 in Rain Rain
5:35 PM 60.4 °F 57.4 °F 90% 29.97 in 4.0 mi NNW 3.5 mph - 0.13 in Rain Rain
5:55 PM 60.6 °F 57.6 °F 90% 29.96 in 7.0 mi North 3.5 mph - 0.14 in Rain Light Rain
6:15 PM 61.7 °F 58.5 °F 89% 29.97 in 7.0 mi North 3.5 mph - N/A   Overcast
6:35 PM 61.7 °F 58.3 °F 89% 29.97 in 10.0 mi Calm Calm - N/A   Scattered Clouds
6:55 PM 61.5 °F 58.1 °F 89% 29.97 in 10.0 mi Calm Calm - N/A   Clear
7:15 PM 60.8 °F 57.2 °F 88% 29.97 in 10.0 mi Calm Calm - N/A   Clear
7:35 PM 59.9 °F 56.3 °F 88% 29.98 in 10.0 mi Calm Calm - N/A   Clear
7:55 PM 59.4 °F 56.1 °F 89% 29.98 in 10.0 mi Calm Calm - N/A   Scattered Clouds
8:15 PM 59.0 °F 55.8 °F 89% 29.99 in 10.0 mi Calm Calm - N/A   Overcast
8:35 PM 59.0 °F 55.6 °F 88% 30.00 in 7.0 mi Calm Calm - N/A   Overcast
8:55 PM 58.6 °F 55.6 °F 90% 30.00 in 7.0 mi Calm Calm - N/A   Mostly Cloudy
9:15 PM 58.1 °F 55.0 °F 90% 30.01 in 5.0 mi Calm Calm - N/A   Scattered Clouds
9:35 PM 57.6 °F 54.5 °F 90% 30.01 in 7.0 mi Calm Calm - N/A   Scattered Clouds
9:55 PM 57.2 °F 54.1 °F 89% 30.01 in 4.0 mi Calm Calm - N/A   Scattered Clouds
10:15 PM 56.1 °F 52.9 °F 89% 30.02 in 10.0 mi Calm Calm - N/A   Clear
10:35 PM 55.8 °F 52.9 °F 90% 30.03 in 7.0 mi Calm Calm - N/A   Clear
10:55 PM 54.7 °F 51.8 °F 90% 30.02 in 7.0 mi Calm Calm - N/A   Scattered Clouds
11:15 PM 54.9 °F 52.0 °F 90% 30.02 in 0.8 mi Calm Calm - N/A   Overcast
11:35 PM 54.9 °F 52.0 °F 90% 30.02 in 0.5 mi Calm Calm - 0.01 in Fog Fog